Preview of NWS' New Version of Forecast
This preview is not operational and should not be used for support decisions.

Regional Weather Roundup (RWR)

Issued by National Weather Service (NWS)

                            
000
ASUS44 KMEG 220700
RWRTN 
TENNESSEE HOURLY STATE WEATHER ROUNDUP
NATIONAL WEATHER SERVICE MEMPHIS TN
200 AM CDT MON JUL 22 2019

TNZ002-004-019-021-049-052-054-088>092-220800-
WEST TENNESSEE
  
CITY           SKY/WX    TMP DP  RH WIND       PRES   REMARKS
MEMPHIS INTL   FAIR      79  77  94 S7        29.93F                  
NWS MEMPHIS      N/A     77 N/A N/A MISG        N/A                   
JACKSON        FAIR      77  75  93 S7        29.94F                  
DYERSBURG      FAIR      76  75  97 S3        29.92F                  
HUNTINGDON     CLOUDY    77  75  94 S5        29.92F                  
LEXINGTON      CLEAR     75  75 100 CALM      29.93F                  
SELMER         CLEAR     75  73  94 CALM      29.94F                  
SAVANNAH       PTCLDY    75  75 100 S5        29.94F                  
$$

TNZ008-025-027-028-033-062-065-066-220800-
NORTH MIDDLE TENNESSEE
  
CITY           SKY/WX    TMP DP  RH WIND       PRES   REMARKS
NASHVILLE      MOCLDY    79  74  84 S5        29.94F                  
PORTLAND       PTCLDY    77  75  94 SW7       29.93F                  
CLARKSVILLE    MOCLDY    79  76  90 W5        29.93F                  
LEBANON        PTSUNNY   77  75  94 SW8       29.93F                  
SMYRNA         FAIR      76  74  93 S5        29.96F                  
MURFREESBORO   CLOUDY    77  73  88 S10       29.95S                  
LIVINGSTON     MOSUNNY   73  72  94 VRB7G13   29.97F                  
GALLATIN       PTSUNNY   77  75  94 CALM      29.96F                  
CROSSVILLE     FAIR      72  69  90 SW5       30.03F                  
$$

TNZ061-075-076-078-094-096-097-220800-
SOUTH MIDDLE TENNESSEE
  
CITY           SKY/WX    TMP DP  RH WIND       PRES   REMARKS
LEWISBURG      CLOUDY    75  73  94 S5        29.97F                  
TULLAHOMA      CLOUDY    73  72  94 CALM      30.00F                  
WINCHESTER     CLOUDY    73  72  94 CALM      30.00F FOG              
MCMINNVILLE    CLOUDY    75  72  88 SW6       30.00S                  
COLUMBIA       PTCLDY    75  75 100 SE3       29.94F                  
$$

TNZ017-018-042-046-047-220800-
NORTHEAST TENNESSEE
  
CITY           SKY/WX    TMP DP  RH WIND       PRES   REMARKS
TRI CITIES     CLOUDY    73  71  93 CALM      30.01F                  
$$

TNZ012-013-036-069-073-074-220800-
CENTRAL EAST TENNESSEE
  
CITY           SKY/WX    TMP DP  RH WIND       PRES   REMARKS
KNOXVILLE      LGT RAIN  78  68  71 W16       29.98S                  
OAK RIDGE      MOCLDY    77  72  84 CALM      30.00F                  
GATLINBURG     MOCLDY    75  72  88 CALM      29.98S                  
MORRISTOWN     CLOUDY    77  73  88 SW5       29.99S                  
JACKSBORO      CLOUDY    73  72  94 VRB3      30.03S FOG              
$$

TNZ083-085-099-220800-
SOUTHEAST TENNESSEE
  
CITY           SKY/WX    TMP DP  RH WIND       PRES   REMARKS
CHATTANOOGA    CLOUDY    79  73  82 S5        29.99F                  
$$

SKY/WX REPORTED AS FAIR MEANS FEW OR NO CLOUDS BELOW
12 THOUSAND FEET.